Weather History for K6R6 - October, 2012

Change the Weather History Date:

Wednesday, October 17, 2012

  Actual Average (KFST) Record (KFST)
Temperature  
Mean Temperature 83 °F -  
Max Temperature 100 °F 76 °F 98 °F (2011)
Min Temperature 68 °F 52 °F 43 °F (1999)
Cooling Degree Days 18    
Growing Degree Days 33 (Base 50)    
Moisture  
Dew Point 47 °F    
Average Humidity 40    
Maximum Humidity 73    
Minimum Humidity 8    
Precipitation  
Precipitation 0.00 in - - ()
Sea Level Pressure  
Sea Level Pressure 29.67 in    
Wind  
Wind Speed 9 mph (WSW)    
Max Wind Speed 20 mph    
Max Gust Speed 25 mph    
Averages and records for this station are not official NWS values.
T = Trace of Precipitation, MM = Missing Value Source: NWS Daily Summary

Daily Weather History Graph

Daily Weather History Graph

Search for Another Location

Airport or City:

Trip Planner

Search our weather history database for the weather conditions in past years. The results will help you decide how hot, cold, wet, or windy it might be!

Date:

Astronomy

Oct. 17, 2012 Rise Set
Actual Time 7:52 AM CDT 7:15 PM CDT
Civil Twilight 7:28 AM CDT 7:39 PM CDT
Nautical Twilight 7:00 AM CDT 8:07 PM CDT
Astronomical Twilight 6:32 AM CDT 8:35 PM CDT
Moon 10:16 AM CDT (10/17) 9:06 PM CDT (10/17)
Length of Visible Light 12h 11m
Length of Day
11h 22m
Waxing Crescent, 7% of the Moon is Illuminated
Oct 17
Waxing Crescent
Oct 21
First Quarter
Oct 29
Full
Nov 6
Last Quarter
Nov 13
New

Hourly Weather History & Observations

Time (CDT) Temp. Heat Index Dew Point Humidity Pressure Visibility Wind Dir Wind Speed Gust Speed Precip Events Conditions
12:53 AM 68.0 °F - 57.9 °F 70% 29.70 in - WSW 6.9 mph - N/A   Unknown
1:53 AM 70.0 °F - 59.0 °F 68% 29.69 in - WSW 9.2 mph - N/A   Unknown
2:53 AM 69.1 °F - 57.9 °F 68% 29.68 in - WSW 6.9 mph - N/A   Unknown
3:53 AM 69.1 °F - 59.0 °F 70% 29.67 in - WSW 6.9 mph - N/A   Unknown
4:53 AM 69.1 °F - 59.0 °F 70% 29.67 in - West 6.9 mph - N/A   Unknown
5:53 AM 68.0 °F - 59.0 °F 73% 29.67 in - WSW 6.9 mph - N/A   Unknown
6:53 AM 69.1 °F - 57.9 °F 68% 29.68 in - West 8.1 mph - N/A   Unknown
7:53 AM 71.1 °F - 57.9 °F 63% 29.69 in - West 10.4 mph - N/A   Unknown
8:53 AM 72.0 °F - 57.9 °F 61% 29.70 in - WSW 8.1 mph - N/A   Unknown
9:53 AM 75.9 °F - 57.9 °F 54% 29.72 in - WSW 12.7 mph 18.4 mph N/A   Unknown
10:53 AM 79.0 °F - 57.9 °F 48% 29.71 in - WSW 11.5 mph - N/A   Unknown
11:53 AM 84.9 °F 83.7 °F 55.9 °F 37% 29.70 in - WSW 19.6 mph 25.3 mph N/A   Unknown
12:53 PM 90.0 °F - 48.9 °F 24% 29.68 in - WSW 17.3 mph 24.2 mph N/A   Unknown
1:53 PM 93.9 °F - 43.0 °F 17% 29.63 in - SW 19.6 mph - N/A   Unknown
2:53 PM 97.0 °F - 30.9 °F 10% 29.59 in - West 11.5 mph - N/A   Unknown
3:53 PM 97.0 °F - 43.0 °F 16% 29.58 in - SW 18.4 mph 25.3 mph N/A   Unknown
4:53 PM 98.1 °F - 32.0 °F 10% 29.57 in - SSW 10.4 mph - N/A   Unknown
5:53 PM 98.1 °F - 27.0 °F 8% 29.59 in - North 9.2 mph - N/A   Unknown
6:53 PM 91.9 °F - 30.9 °F 11% 29.62 in - Calm Calm - N/A   Unknown
7:53 PM 86.0 °F - 35.1 °F 16% 29.65 in - SSE 3.5 mph - N/A   Unknown
8:53 PM 81.0 °F - 36.0 °F 20% 29.67 in - Calm Calm - N/A   Unknown
9:53 PM 73.9 °F - 37.9 °F 27% 29.70 in - WNW 4.6 mph - N/A   Unknown
10:53 PM 72.0 °F - 39.0 °F 30% 29.71 in - WNW 5.8 mph - N/A   Unknown
11:53 PM 71.1 °F - 39.0 °F 31% 29.71 in - WNW 9.2 mph - N/A   Unknown